Weather History for Cape Girardeau, MO

Change the Weather History Date:

Tuesday, January 8, 2013

  Actual Average Record
Temperature  
Mean Temperature 38 °F 33 °F  
Max Temperature 52 °F 42 °F 69 °F (1965)
Min Temperature 23 °F 24 °F -4 °F (1970)
Degree Days  
Heating Degree Days 27 32  
Month to date heating degree days 270 256  
Since 1 July heating degree days 1894 2007  
Cooling Degree Days 0 0  
Month to date cooling degree days 0 0  
Year to date cooling degree days 0 0  
Moisture  
Dew Point 30 °F    
Average Humidity 74    
Maximum Humidity 92    
Minimum Humidity 56    
Precipitation  
Precipitation T in 0.11 in 1.76 in (2008)
Month to date precipitation T 0.94  
Year to date precipitation T 0.94  
Sea Level Pressure  
Sea Level Pressure 30.22 in    
Wind  
Wind Speed 3 mph (SSE)    
Max Wind Speed 13 mph    
Max Gust Speed 15 mph    
Visibility 7 miles    
Events Rain    
T = Trace of Precipitation, MM = Missing Value Source: NWS Daily Summary

Daily Weather History Graph

Daily Weather History Graph

Search for Another Location

Airport:

Trip Planner

Search our weather history database for the weather conditions in past years. The results will help you decide how hot, cold, wet, or windy it might be!

Date:

Astronomy

Jan. 08, 2013 Rise Set
Actual Time 7:12 AM CST 4:58 PM CST
Civil Twilight 6:43 AM CST 5:26 PM CST
Nautical Twilight 6:11 AM CST 5:59 PM CST
Astronomical Twilight 5:39 AM CST 6:30 PM CST
Moon 3:45 AM CST (1/8) 2:00 PM CST (1/8)
Length of Visible Light 10h 43m
Length of Day
9h 45m
Waning Crescent, 13% of the Moon is Illuminated
Jan 8
Waning Crescent
Jan 11
New
Jan 18
First Quarter
Jan 26
Full
Feb 3
Last Quarter

Hourly Weather History & Observations

Time (CST) Temp. Windchill Dew Point Humidity Pressure Visibility Wind Dir Wind Speed Gust Speed Precip Events Conditions
12:53 AM 28.0 °F - 25.0 °F 88% 30.22 in 4.0 mi Calm Calm - N/A   Clear
1:53 AM 27.0 °F - 24.1 °F 89% 30.23 in 4.0 mi Calm Calm - N/A   Clear
2:53 AM 26.1 °F - 24.1 °F 92% 30.22 in 3.0 mi Calm Calm - N/A   Clear
3:53 AM 25.0 °F - 23.0 °F 92% 30.22 in 2.0 mi Calm Calm - N/A   Clear
4:00 AM 24.8 °F - 21.2 °F 86% 30.21 in 0.8 mi Calm Calm - N/A   Clear
4:13 AM 23.0 °F - 21.2 °F 93% 30.20 in 2.0 mi Calm Calm - N/A   Clear
4:27 AM 24.8 °F - 21.2 °F 86% 30.21 in 4.0 mi Calm Calm - N/A   Clear
4:53 AM 24.1 °F 19.7 °F 21.9 °F 91% 30.22 in 4.0 mi ESE 3.5 mph - N/A   Clear
5:53 AM 25.0 °F - 21.9 °F 88% 30.24 in 4.0 mi Calm Calm - N/A   Clear
6:53 AM 27.0 °F 23.0 °F 23.0 °F 85% 30.25 in 7.0 mi SSE 3.5 mph - N/A   Clear
7:53 AM 27.0 °F - 24.1 °F 89% 30.27 in 5.0 mi Calm Calm - N/A   Clear
8:53 AM 33.1 °F - 28.9 °F 85% 30.28 in 6.0 mi Calm Calm - N/A   Clear
9:53 AM 39.0 °F 34.8 °F 30.0 °F 70% 30.27 in 10.0 mi SSE 5.8 mph - N/A   Clear
10:53 AM 43.0 °F 38.8 °F 30.9 °F 62% 30.26 in 10.0 mi South 6.9 mph - N/A   Clear
11:53 AM 46.0 °F 41.4 °F 32.0 °F 58% 30.23 in 10.0 mi South 9.2 mph - N/A   Clear
12:53 PM 48.9 °F - 33.1 °F 54% 30.20 in 10.0 mi SSW 5.8 mph - N/A   Clear
1:53 PM 50.0 °F - 35.1 °F 57% 30.19 in 10.0 mi South 6.9 mph - N/A   Clear
2:53 PM 51.1 °F - 37.0 °F 59% 30.19 in 10.0 mi South 10.4 mph - N/A   Partly Cloudy
3:53 PM 50.0 °F - 37.9 °F 63% 30.19 in 10.0 mi South 6.9 mph - N/A   Clear
4:53 PM 46.0 °F 43.1 °F 37.0 °F 71% 30.19 in 10.0 mi SSE 5.8 mph - N/A   Clear
5:53 PM 41.0 °F - 36.0 °F 82% 30.20 in 10.0 mi Calm Calm - N/A   Clear
6:53 PM 37.0 °F 34.5 °F 34.0 °F 89% 30.19 in 10.0 mi SE 3.5 mph - N/A   Clear
7:53 PM 39.0 °F - 34.0 °F 82% 30.20 in 10.0 mi Calm Calm - N/A   Clear
8:53 PM 37.9 °F - 35.1 °F 89% 30.21 in 10.0 mi Calm Calm - N/A   Mostly Cloudy
9:53 PM 39.0 °F - 35.1 °F 86% 30.19 in 10.0 mi Calm Calm - N/A   Mostly Cloudy
10:53 PM 39.2 °F - 37.4 °F 93% 30.20 in 10.0 mi Calm Calm - N/A   Overcast
11:53 PM 41.0 °F - 37.9 °F 89% 30.22 in 10.0 mi Calm Calm - 0.00 in Rain Light Rain